Location: Bieg
(49.3499°N, 10.3835°E)
Time: 10:04:08
(UTC+00:00)

Cosmos 2333 - Pass Details

Date: 23 May 2024
Orbit: 828 x 866 km, 70.9° (Epoch: 20 June)

Event Time Altitude Azimuth Distance (km) Brightness Sun altitude
Rises 01:42:29 0° 331° (NNW) 3,424 7.7 -12.7°
Reaches altitude 10° 01:44:56 10° 333° (NNW) 2,490 7.0 -12.5°
Maximum altitude 01:50:41 80° 60° (ENE) 876 4.4 -12.0°
Drops below altitude 10° 01:56:27 10° 148° (SSE) 2,496 6.5 -11.4°
Sets 01:58:54 0° 150° (SSE) 3,432 7.2 -11.1°
